Welcome to Northern Hawkes Bay. New Zealand.
PWS Header
      nz Flag



Hit Counter


W3C Valid W3C Valid logo


    Wairoa

Select any of the Stations below to visit their websites.










Historic Data from Weather Underground
Select the location of interest below. Wairoa is the default. Please have patience, this Data is slow to load in.
Northern Hawkes Bay Historical Data
Daily Summary for June 20, 2017 Units:  Metric    English   Both
« Previous Day
Next Day »
Daily Weekly Monthly Yearly Custom
  High: Low: Average:
Temperature: 18.3 °C 4.6 °C 11.1 °C
Dew Point: 12.7 °C 4.4 °C 9.7 °C
Humidity: 99% 68% 91%
Wind Speed: 14.8km/h 0.0km/h 4.1km/h
Wind Gust: 20.9km/h - -
Wind- - SW
Pressure: 1031.7 hPa 1029.0 hPa -
Precipitation: 0.5 mm    
Historical Graphs
 
 
Tabular Data for June 20, 2017
Time Temperature Dew Point Pressure Wind Wind Speed Wind Gust Humidity Rainfall Rate (Hourly) solar
00:03 12.1 °C 9.5 °C 1030.0 hPa WSW 8.7 km/h 15.8 km/h 84% 0.0 mm 0 W/m2
00:08 12.1 °C 9.5 °C 1030.0 hPa WSW 5.0 km/h 17.2 km/h 84% 0.0 mm 0 W/m2
00:13 12.1 °C 9.5 °C 1030.4 hPa WSW 3.5 km/h 17.2 km/h 84% 0.0 mm 0 W/m2
00:18 12.1 °C 9.7 °C 1030.4 hPa WSW 7.2 km/h 18.3 km/h 85% 0.0 mm 0 W/m2
00:23 12.1 °C 9.7 °C 1030.0 hPa West 7.2 km/h 18.3 km/h 85% 0.0 mm 0 W/m2
00:28 12.1 °C 9.7 °C 1030.4 hPa West 7.2 km/h 17.2 km/h 85% 0.0 mm 0 W/m2
00:33 12.1 °C 9.7 °C 1030.0 hPa West 3.5 km/h 17.2 km/h 85% 0.0 mm 0 W/m2
00:38 12.1 °C 9.7 °C 1030.0 hPa West 7.2 km/h 12.2 km/h 85% 0.0 mm 0 W/m2
00:43 12.0 °C 9.6 °C 1030.0 hPa West 12.2 km/h 14.8 km/h 85% 0.0 mm 0 W/m2
00:48 12.0 °C 9.6 °C 1030.0 hPa West 9.7 km/h 14.8 km/h 85% 0.0 mm 0 W/m2
00:53 12.0 °C 9.6 °C 1030.0 hPa West 2.6 km/h 14.8 km/h 85% 0.0 mm 0 W/m2
00:58 12.0 °C 9.6 °C 1030.0 hPa West 5.0 km/h 12.2 km/h 85% 0.0 mm 0 W/m2
01:03 12.0 °C 9.6 °C 1030.0 hPa West 6.1 km/h 14.8 km/h 85% 0.0 mm 0 W/m2
01:08 12.0 °C 9.6 °C 1030.0 hPa West 2.6 km/h 14.8 km/h 85% 0.0 mm 0 W/m2
01:13 11.9 °C 9.6 °C 1030.0 hPa West 1.1 km/h 8.7 km/h 86% 0.0 mm 0 W/m2
01:18 11.9 °C 9.6 °C 1030.0 hPa West 7.2 km/h 8.7 km/h 86% 0.0 mm 0 W/m2
01:23 11.9 °C 9.6 °C 1030.0 hPa West 3.5 km/h 8.7 km/h 86% 0.0 mm 0 W/m2
01:28 11.8 °C 9.4 °C 1030.0 hPa West 6.1 km/h 9.7 km/h 85% 0.0 mm 0 W/m2
01:33 11.8 °C 9.4 °C 1030.0 hPa West 1.1 km/h 9.7 km/h 85% 0.0 mm 0 W/m2
01:38 11.8 °C 9.6 °C 1030.0 hPa West 5.0 km/h 9.7 km/h 86% 0.0 mm 0 W/m2
01:43 11.9 °C 9.4 °C 1030.0 hPa West 5.0 km/h 9.7 km/h 85% 0.0 mm 0 W/m2
01:48 11.9 °C 9.4 °C 1030.0 hPa West 5.0 km/h 9.7 km/h 85% 0.0 mm 0 W/m2
01:53 11.9 °C 9.4 °C 1030.4 hPa WNW 5.0 km/h 9.7 km/h 85% 0.0 mm 0 W/m2
01:58 11.9 °C 9.4 °C 1030.0 hPa West 7.2 km/h 9.7 km/h 85% 0.0 mm 0 W/m2
02:03 11.9 °C 9.4 °C 1030.4 hPa WSW 7.2 km/h 15.8 km/h 85% 0.0 mm 0 W/m2
02:08 11.9 °C 9.4 °C 1030.0 hPa West 9.7 km/h 15.8 km/h 85% 0.0 mm 0 W/m2
02:13 11.9 °C 9.4 °C 1030.4 hPa West 7.2 km/h 13.4 km/h 85% 0.0 mm 0 W/m2
02:18 11.9 °C 9.6 °C 1030.0 hPa WSW 7.2 km/h 12.2 km/h 86% 0.0 mm 0 W/m2
02:23 11.9 °C 9.6 °C 1030.0 hPa SW 8.7 km/h 15.8 km/h 86% 0.0 mm 0 W/m2
02:28 11.9 °C 9.6 °C 1030.4 hPa WSW 7.2 km/h 19.5 km/h 86% 0.0 mm 0 W/m2
02:33 11.9 °C 9.6 °C 1030.0 hPa West 5.0 km/h 19.5 km/h 86% 0.0 mm 0 W/m2
02:38 11.9 °C 9.6 °C 1030.4 hPa WSW 6.1 km/h 15.8 km/h 86% 0.0 mm 0 W/m2
02:43 11.9 °C 9.6 °C 1030.4 hPa WSW 2.6 km/h 15.8 km/h 86% 0.0 mm 0 W/m2
02:48 11.9 °C 9.8 °C 1030.4 hPa West 6.1 km/h 11.1 km/h 87% 0.0 mm 0 W/m2
02:53 11.8 °C 9.7 °C 1030.0 hPa West 6.1 km/h 11.1 km/h 87% 0.0 mm 0 W/m2
02:58 11.8 °C 9.7 °C 1030.0 hPa WSW 8.7 km/h 12.2 km/h 87% 0.0 mm 0 W/m2
03:03 11.8 °C 9.7 °C 1030.0 hPa WSW 5.0 km/h 12.2 km/h 87% 0.0 mm 0 W/m2
03:08 11.8 °C 9.7 °C 1030.0 hPa WSW 14.8 km/h 20.9 km/h 87% 0.0 mm 0 W/m2
03:13 11.7 °C 9.9 °C 1030.0 hPa WSW 13.4 km/h 20.9 km/h 89% 0.0 mm 0 W/m2
03:18 11.7 °C 10.1 °C 1030.0 hPa West 3.5 km/h 20.9 km/h 90% 0.0 mm 0 W/m2
03:23 11.6 °C 10.2 °C 1030.0 hPa WSW 6.1 km/h 14.8 km/h 91% 0.0 mm 0 W/m2
03:28 11.6 °C 10.2 °C 1030.0 hPa WSW 7.2 km/h 17.2 km/h 91% 0.0 mm 0 W/m2
03:33 11.6 °C 10.2 °C 1030.0 hPa WSW 6.1 km/h 17.2 km/h 91% 0.0 mm 0 W/m2
03:38 11.6 °C 10.2 °C 1030.0 hPa WSW 7.2 km/h 14.8 km/h 91% 0.0 mm 0 W/m2
03:43 11.6 °C 10.2 °C 1030.0 hPa WSW 7.2 km/h 13.4 km/h 91% 0.0 mm 0 W/m2
03:48 11.5 °C 10.1 °C 1030.0 hPa West 6.1 km/h 12.2 km/h 91% 0.0 mm 0 W/m2
03:53 11.5 °C 9.9 °C 1030.0 hPa West 3.5 km/h 14.8 km/h 90% 0.0 mm 0 W/m2
03:58 11.5 °C 9.9 °C 1030.0 hPa WSW 2.6 km/h 14.8 km/h 90% 0.0 mm 0 W/m2
04:03 11.5 °C 9.9 °C 1030.0 hPa WNW 2.6 km/h 7.2 km/h 90% 0.0 mm 0 W/m2
04:08 11.4 °C 9.8 °C 1030.0 hPa WNW 3.5 km/h 11.1 km/h 90% 0.0 mm 0 W/m2
04:13 11.4 °C 9.7 °C 1030.0 hPa West 3.5 km/h 11.1 km/h 89% 0.0 mm 0 W/m2
04:18 11.4 °C 9.7 °C 1030.0 hPa West 3.5 km/h 11.1 km/h 89% 0.0 mm 0 W/m2
04:23 11.4 °C 9.7 °C 1030.0 hPa WSW 6.1 km/h 11.1 km/h 89% 0.0 mm 0 W/m2
04:28 11.5 °C 9.8 °C 1030.0 hPa West 9.7 km/h 12.2 km/h 89% 0.0 mm 0 W/m2
04:33 11.5 °C 9.6 °C 1030.0 hPa WSW 9.7 km/h 14.8 km/h 88% 0.0 mm 0 W/m2
04:39 11.5 °C 9.6 °C 1030.0 hPa WSW 7.2 km/h 14.8 km/h 88% 0.0 mm 0 W/m2
04:44 11.5 °C 9.8 °C 1030.0 hPa WSW 5.0 km/h 12.2 km/h 89% 0.0 mm 0 W/m2
04:49 11.4 °C 9.8 °C 1030.0 hPa WSW 9.7 km/h 12.2 km/h 90% 0.0 mm 0 W/m2
04:54 11.2 °C 9.8 °C 1030.0 hPa WSW 9.7 km/h 14.8 km/h 91% 0.0 mm 0 W/m2
04:59 11.0 °C 9.8 °C 1030.0 hPa West 11.1 km/h 17.2 km/h 92% 0.0 mm 0 W/m2
05:04 10.9 °C 10.0 °C 1030.0 hPa West 7.2 km/h 17.2 km/h 94% 0.0 mm 0 W/m2
05:09 10.7 °C 9.9 °C 1030.0 hPa West 2.6 km/h 15.8 km/h 95% 0.0 mm 0 W/m2
05:14 10.6 °C 10.0 °C 1030.0 hPa WSW 1.1 km/h 12.2 km/h 96% 0.0 mm 0 W/m2
05:19 10.5 °C 10.1 °C 1030.0 hPa West 1.1 km/h 11.1 km/h 97% 0.0 mm 0 W/m2
05:24 10.4 °C 9.9 °C 1030.0 hPa NW 2.6 km/h 7.2 km/h 97% 0.0 mm 0 W/m2
05:30 10.4 °C 9.9 °C 1030.0 hPa NNW 1.1 km/h 7.2 km/h 97% 0.0 mm 0 W/m2
05:35 10.4 °C 10.1 °C 1030.4 hPa NNW 2.6 km/h 7.2 km/h 98% 0.0 mm 0 W/m2
05:40 10.4 °C 10.1 °C 1030.0 hPa NNW 1.1 km/h 7.2 km/h 98% 0.0 mm 0 W/m2
05:45 10.4 °C 10.1 °C 1030.0 hPa NNW 1.1 km/h 7.2 km/h 98% 0.0 mm 0 W/m2
05:50 10.4 °C 10.1 °C 1030.4 hPa NNW 1.1 km/h 6.1 km/h 98% 0.0 mm 0 W/m2
05:55 10.3 °C 10.0 °C 1030.0 hPa NNW 1.1 km/h 6.1 km/h 98% 0.0 mm 0 W/m2
06:00 10.3 °C 10.2 °C 1030.4 hPa North 2.6 km/h 6.1 km/h 99% 0.0 mm 0 W/m2
06:05 10.3 °C 10.2 °C 1030.4 hPa North 3.5 km/h 5.0 km/h 99% 0.0 mm 0 W/m2
06:10 10.3 °C 10.2 °C 1030.4 hPa North 3.5 km/h 6.1 km/h 99% 0.0 mm 0 W/m2
06:15 10.2 °C 10.1 °C 1030.4 hPa NNE 1.1 km/h 6.1 km/h 99% 0.0 mm 0 W/m2
06:20 10.2 °C 10.1 °C 1030.4 hPa North 5.0 km/h 7.2 km/h 99% 0.0 mm 0 W/m2
06:25 10.1 °C 9.9 °C 1030.4 hPa North 5.0 km/h 8.7 km/h 99% 0.3 mm 0 W/m2
06:30 10.0 °C 9.8 °C 1030.4 hPa North 6.1 km/h 8.7 km/h 99% 0.3 mm 0 W/m2
06:35 10.0 °C 9.8 °C 1030.4 hPa NNW 6.1 km/h 8.7 km/h 99% 0.3 mm 0 W/m2
06:51 9.9 °C 9.8 °C 1030.4 hPa NNW 3.5 km/h 7.2 km/h 99% 0.3 mm 0 W/m2
06:56 9.8 °C 9.7 °C 1030.7 hPa NNW 3.5 km/h 7.2 km/h 99% 0.3 mm 0 W/m2
07:01 9.8 °C 9.7 °C 1030.4 hPa NNW 2.6 km/h 7.2 km/h 99% 0.3 mm 0 W/m2
07:05 9.8 °C 9.7 °C 1030.4 hPa NNW 5.0 km/h 7.2 km/h 99% 0.3 mm 0 W/m2
07:10 9.8 °C 9.7 °C 1030.7 hPa North 5.0 km/h 9.7 km/h 99% 0.3 mm 0 W/m2
07:15 9.8 °C 9.7 °C 1030.7 hPa North 2.6 km/h 9.7 km/h 99% 0.3 mm 0 W/m2
07:20 9.8 °C 9.7 °C 1030.7 hPa NNW 3.5 km/h 7.2 km/h 99% 0.3 mm 0 W/m2
07:25 9.8 °C 9.7 °C 1030.7 hPa NNW 3.5 km/h 7.2 km/h 99% 0.0 mm 0 W/m2
07:30 9.8 °C 9.7 °C 1030.7 hPa NNW 5.0 km/h 7.2 km/h 99% 0.0 mm 0 W/m2
07:35 9.8 °C 9.7 °C 1030.7 hPa North 2.6 km/h 7.2 km/h 99% 0.0 mm 0 W/m2
07:40 9.8 °C 9.7 °C 1031.0 hPa North 6.1 km/h 9.7 km/h 99% 0.0 mm 0 W/m2
07:45 9.8 °C 9.7 °C 1031.0 hPa NNW 5.0 km/h 9.7 km/h 99% 0.0 mm 2 W/m2
07:50 9.8 °C 9.7 °C 1030.7 hPa NNW 5.0 km/h 9.7 km/h 99% 0.0 mm 4 W/m2
07:55 9.8 °C 9.7 °C 1030.7 hPa NNW 5.0 km/h 9.7 km/h 99% 0.0 mm 6 W/m2
08:00 9.8 °C 9.7 °C 1031.0 hPa NNW 5.0 km/h 8.7 km/h 99% 0.0 mm 8 W/m2
08:05 9.8 °C 9.7 °C 1031.0 hPa NNW 3.5 km/h 8.7 km/h 99% 0.0 mm 13 W/m2
08:11 9.9 °C 9.8 °C 1031.0 hPa North 5.0 km/h 8.7 km/h 99% 0.0 mm 18 W/m2
08:16 9.9 °C 9.8 °C 1031.0 hPa NNW 6.1 km/h 9.7 km/h 99% 0.0 mm 23 W/m2
08:21 10.0 °C 9.8 °C 1031.0 hPa North 5.0 km/h 9.7 km/h 99% 0.0 mm 27 W/m2
08:26 10.0 °C 9.8 °C 1031.0 hPa North 8.7 km/h 9.7 km/h 99% 0.0 mm 27 W/m2
08:31 10.1 °C 9.9 °C 1031.0 hPa North 3.5 km/h 9.7 km/h 99% 0.0 mm 32 W/m2
08:36 10.1 °C 9.9 °C 1031.0 hPa North 3.5 km/h 9.7 km/h 99% 0.0 mm 45 W/m2
08:41 10.3 °C 10.2 °C 1031.0 hPa NNW 3.5 km/h 9.7 km/h 99% 0.0 mm 50 W/m2
08:46 10.3 °C 10.2 °C 1031.0 hPa NNW 3.5 km/h 9.7 km/h 99% 0.0 mm 50 W/m2
08:51 10.4 °C 10.3 °C 1031.0 hPa North 3.5 km/h 9.7 km/h 99% 0.0 mm 57 W/m2
08:56 10.5 °C 10.3 °C 1031.0 hPa North 2.6 km/h 8.7 km/h 99% 0.0 mm 53 W/m2
09:01 10.5 °C 10.3 °C 1031.0 hPa North 3.5 km/h 8.7 km/h 99% 0.0 mm 54 W/m2
09:06 10.6 °C 10.4 °C 1031.0 hPa North 6.1 km/h 8.7 km/h 99% 0.0 mm 57 W/m2
09:11 10.6 °C 10.4 °C 1031.0 hPa North 3.5 km/h 8.7 km/h 99% 0.0 mm 61 W/m2
09:16 10.7 °C 10.6 °C 1031.4 hPa NNW 3.5 km/h 8.7 km/h 99% 0.0 mm 67 W/m2
09:21 10.9 °C 10.8 °C 1031.4 hPa North 5.0 km/h 8.7 km/h 99% 0.3 mm 71 W/m2
09:26 10.9 °C 10.8 °C 1031.4 hPa North 5.0 km/h 9.7 km/h 99% 0.3 mm 77 W/m2
09:31 11.0 °C 10.7 °C 1031.4 hPa North 6.1 km/h 11.1 km/h 98% 0.3 mm 88 W/m2
09:36 11.0 °C 10.7 °C 1031.0 hPa North 2.6 km/h 11.1 km/h 98% 0.3 mm 92 W/m2
09:41 11.3 °C 11.0 °C 1031.4 hPa North 3.5 km/h 9.7 km/h 98% 0.3 mm 99 W/m2
09:46 11.4 °C 11.1 °C 1031.4 hPa NNW 5.0 km/h 8.7 km/h 98% 0.3 mm 97 W/m2
09:51 11.5 °C 11.2 °C 1031.4 hPa NNW 5.0 km/h 12.2 km/h 98% 0.3 mm 101 W/m2
09:56 11.5 °C 11.2 °C 1031.4 hPa North 5.0 km/h 12.2 km/h 98% 0.3 mm 101 W/m2
10:01 11.6 °C 11.3 °C 1031.4 hPa North 3.5 km/h 12.2 km/h 98% 0.3 mm 123 W/m2
10:06 11.8 °C 11.5 °C 1031.4 hPa North 5.0 km/h 9.7 km/h 98% 0.3 mm 128 W/m2
10:11 12.0 °C 11.4 °C 1031.4 hPa North 6.1 km/h 11.1 km/h 96% 0.3 mm 123 W/m2
10:16 12.1 °C 11.3 °C 1031.4 hPa North 7.2 km/h 11.1 km/h 95% 0.3 mm 131 W/m2
10:21 12.1 °C 11.2 °C 1031.4 hPa North 6.1 km/h 11.1 km/h 94% 0.0 mm 133 W/m2
10:26 12.4 °C 11.3 °C 1031.4 hPa North 5.0 km/h 11.1 km/h 93% 0.0 mm 125 W/m2
10:31 12.2 °C 10.9 °C 1031.4 hPa NNW 3.5 km/h 8.7 km/h 92% 0.0 mm 121 W/m2
10:36 12.5 °C 11.2 °C 1031.4 hPa NNW 3.5 km/h 8.7 km/h 92% 0.0 mm 117 W/m2
10:53 12.7 °C 11.3 °C 1031.0 hPa Calm   7.2 km/h 91% 0.0 mm 112 W/m2
10:58 12.8 °C 11.4 °C 1031.0 hPa NNE 1.1 km/h 6.1 km/h 91% 0.0 mm 113 W/m2
11:03 12.8 °C 11.4 °C 1030.7 hPa North 2.6 km/h 6.1 km/h 91% 0.0 mm 116 W/m2
11:08 12.9 °C 11.4 °C 1030.7 hPa NNW 2.6 km/h 5.0 km/h 91% 0.0 mm 134 W/m2
11:13 13.2 °C 11.6 °C 1030.7 hPa North 2.6 km/h 6.1 km/h 90% 0.0 mm 154 W/m2
11:18 13.6 °C 11.8 °C 1030.7 hPa NNW 1.1 km/h 6.1 km/h 89% 0.0 mm 167 W/m2
11:23 13.7 °C 11.8 °C 1030.7 hPa NW 1.1 km/h 7.2 km/h 88% 0.0 mm 173 W/m2
11:28 13.7 °C 11.6 °C 1030.7 hPa NNW 5.0 km/h 7.2 km/h 87% 0.0 mm 173 W/m2
11:33 14.0 °C 11.7 °C 1030.4 hPa NNW 1.1 km/h 6.1 km/h 86% 0.0 mm 171 W/m2
11:38 14.1 °C 11.6 °C 1030.4 hPa NW 1.1 km/h 6.1 km/h 85% 0.0 mm 174 W/m2
11:43 14.4 °C 11.9 °C 1030.4 hPa NW 1.1 km/h 5.0 km/h 85% 0.0 mm 189 W/m2
11:48 15.4 °C 12.7 °C 1030.4 hPa WNW 3.5 km/h 6.1 km/h 84% 0.0 mm 138 W/m2
11:53 15.4 °C 12.2 °C 1030.4 hPa NW 2.6 km/h 6.1 km/h 81% 0.0 mm 119 W/m2
11:58 15.9 °C 12.7 °C 1030.4 hPa NNW 1.1 km/h 6.1 km/h 81% 0.0 mm 143 W/m2
12:03 17.0 °C 12.7 °C 1030.4 hPa NNE 6.1 km/h 8.7 km/h 76% 0.0 mm 143 W/m2
12:08 16.7 °C 12.1 °C 1030.4 hPa North 2.6 km/h 8.7 km/h 74% 0.0 mm 132 W/m2
12:13 16.5 °C 11.8 °C 1030.4 hPa NNW 2.6 km/h 8.7 km/h 74% 0.0 mm 127 W/m2
12:18 17.3 °C 12.2 °C 1030.0 hPa West 1.1 km/h 7.2 km/h 72% 0.0 mm 101 W/m2
12:23 18.3 °C 12.7 °C 1030.0 hPa East 5.0 km/h 6.1 km/h 70% 0.0 mm 110 W/m2
12:28 17.5 °C 11.6 °C 1030.0 hPa East 3.5 km/h 6.1 km/h 68% 0.0 mm 85 W/m2
12:33 16.5 °C 11.4 °C 1030.0 hPa SE 3.5 km/h 8.7 km/h 72% 0.0 mm 77 W/m2
12:38 16.5 °C 12.1 °C 1030.0 hPa SE 3.5 km/h 8.7 km/h 75% 0.0 mm 84 W/m2
12:43 17.0 °C 12.1 °C 1030.0 hPa SSE 5.0 km/h 7.2 km/h 73% 0.0 mm 80 W/m2
12:48 17.2 °C 12.1 °C 1030.0 hPa SE 2.6 km/h 8.7 km/h 72% 0.0 mm 82 W/m2
12:53 17.0 °C 11.9 °C 1030.0 hPa SSE 5.0 km/h 8.7 km/h 72% 0.0 mm 80 W/m2
12:58 16.0 °C 11.4 °C 1029.7 hPa SSE 1.1 km/h 8.7 km/h 74% 0.0 mm 92 W/m2
13:03 16.0 °C 12.0 °C 1029.7 hPa SSE 6.1 km/h 7.2 km/h 77% 0.0 mm 106 W/m2
13:08 16.5 °C 12.3 °C 1029.7 hPa SSE 5.0 km/h 8.7 km/h 76% 0.0 mm 94 W/m2
13:13 15.5 °C 11.3 °C 1029.7 hPa SSE 3.5 km/h 8.7 km/h 76% 0.0 mm 128 W/m2
13:18 15.2 °C 11.6 °C 1029.7 hPa South 5.0 km/h 9.7 km/h 79% 0.0 mm 142 W/m2
13:23 15.4 °C 12.0 °C 1029.7 hPa South 5.0 km/h 9.7 km/h 80% 0.0 mm 152 W/m2
13:28 15.4 °C 11.8 °C 1029.7 hPa SSE 6.1 km/h 8.7 km/h 79% 0.0 mm 137 W/m2
13:33 15.6 °C 11.8 °C 1029.7 hPa SE 3.5 km/h 8.7 km/h 78% 0.0 mm 131 W/m2
13:38 15.8 °C 11.6 °C 1029.7 hPa SSE 2.6 km/h 8.7 km/h 76% 0.0 mm 129 W/m2
13:43 15.3 °C 11.1 °C 1029.7 hPa SE 3.5 km/h 8.7 km/h 76% 0.0 mm 143 W/m2
13:48 15.4 °C 11.6 °C 1029.3 hPa SE 1.1 km/h 8.7 km/h 78% 0.0 mm 154 W/m2
13:53 15.6 °C 11.8 °C 1029.3 hPa SE 2.6 km/h 8.7 km/h 78% 0.0 mm 146 W/m2
13:58 16.2 °C 11.8 °C 1029.7 hPa SE 3.5 km/h 8.7 km/h 75% 0.0 mm 142 W/m2
14:03 15.9 °C 11.7 °C 1029.7 hPa SE 5.0 km/h 7.2 km/h 76% 0.0 mm 238 W/m2
14:08 16.1 °C 11.9 °C 1029.3 hPa SE 5.0 km/h 7.2 km/h 76% 0.0 mm 127 W/m2
14:13 15.6 °C 11.4 °C 1029.3 hPa SE 3.5 km/h 7.2 km/h 76% 0.0 mm 120 W/m2
14:18 15.2 °C 11.2 °C 1029.3 hPa SE 2.6 km/h 7.2 km/h 77% 0.0 mm 133 W/m2
14:23 15.7 °C 11.9 °C 1029.3 hPa SE 2.6 km/h 7.2 km/h 78% 0.0 mm 240 W/m2
14:28 16.7 °C 12.4 °C 1029.3 hPa ESE 3.5 km/h 7.2 km/h 76% 0.0 mm 248 W/m2
14:33 17.0 °C 11.9 °C 1029.3 hPa SE 3.5 km/h 8.7 km/h 72% 0.0 mm 253 W/m2
14:38 16.1 °C 11.4 °C 1029.0 hPa SSE 5.0 km/h 9.7 km/h 74% 0.0 mm 162 W/m2
14:43 15.6 °C 11.6 °C 1029.3 hPa SSE 5.0 km/h 9.7 km/h 77% 0.0 mm 237 W/m2
14:48 15.7 °C 11.9 °C 1029.3 hPa SSE 3.5 km/h 8.7 km/h 78% 0.0 mm 151 W/m2
14:53 15.8 °C 12.0 °C 1029.7 hPa SSE 5.0 km/h 8.7 km/h 78% 0.0 mm 130 W/m2
14:58 15.1 °C 11.3 °C 1029.3 hPa SE 5.0 km/h 8.7 km/h 78% 0.0 mm 82 W/m2
15:03 14.6 °C 11.6 °C 1029.3 hPa SE 2.6 km/h 7.2 km/h 82% 0.0 mm 86 W/m2
15:08 14.4 °C 11.6 °C 1029.3 hPa SE 2.6 km/h 8.7 km/h 83% 0.0 mm 87 W/m2
15:13 14.2 °C 11.6 °C 1029.7 hPa SE 5.0 km/h 8.7 km/h 84% 0.0 mm 88 W/m2
15:18 14.3 °C 11.6 °C 1029.7 hPa ESE 3.5 km/h 8.7 km/h 84% 0.0 mm 182 W/m2
15:23 14.7 °C 12.1 °C 1029.3 hPa SSE 8.7 km/h 11.1 km/h 84% 0.0 mm 104 W/m2
15:28 15.3 °C 12.4 °C 1029.3 hPa SE 5.0 km/h 11.1 km/h 83% 0.0 mm 157 W/m2
15:33 15.8 °C 12.6 °C 1029.3 hPa East 7.2 km/h 11.1 km/h 81% 0.0 mm 143 W/m2
15:38 15.4 °C 11.6 °C 1029.3 hPa East 6.1 km/h 9.7 km/h 78% 0.0 mm 127 W/m2
15:43 15.3 °C 11.7 °C 1029.3 hPa ESE 6.1 km/h 9.7 km/h 79% 0.0 mm 107 W/m2
15:49 15.1 °C 11.7 °C 1029.3 hPa ESE 9.7 km/h 12.2 km/h 80% 0.0 mm 93 W/m2
15:59 14.0 °C 11.3 °C 1029.3 hPa East 9.7 km/h 15.8 km/h 84% 0.0 mm 65 W/m2
16:04 14.0 °C 11.5 °C 1029.3 hPa East 9.7 km/h 15.8 km/h 85% 0.0 mm 36 W/m2
16:09 13.5 °C 11.2 °C 1029.3 hPa East 6.1 km/h 13.4 km/h 86% 0.0 mm 39 W/m2
16:14 13.5 °C 11.4 °C 1029.3 hPa East 7.2 km/h 14.8 km/h 87% 0.0 mm 38 W/m2
16:19 13.6 °C 11.5 °C 1029.3 hPa East 8.7 km/h 14.8 km/h 87% 0.0 mm 31 W/m2
16:24 13.6 °C 11.5 °C 1029.3 hPa East 6.1 km/h 13.4 km/h 87% 0.0 mm 26 W/m2
16:29 13.6 °C 11.5 °C 1029.3 hPa East 5.0 km/h 12.2 km/h 87% 0.0 mm 20 W/m2
16:34 13.2 °C 11.1 °C 1029.3 hPa East 6.1 km/h 13.4 km/h 87% 0.0 mm 11 W/m2
16:39 12.7 °C 10.8 °C 1029.3 hPa East 8.7 km/h 13.4 km/h 88% 0.0 mm 9 W/m2
16:44 12.6 °C 11.0 °C 1029.3 hPa East 7.2 km/h 13.4 km/h 90% 0.0 mm 4 W/m2
16:49 12.4 °C 11.0 °C 1029.3 hPa East 3.5 km/h 14.8 km/h 91% 0.0 mm 2 W/m2
16:54 12.2 °C 10.8 °C 1029.3 hPa East 5.0 km/h 14.8 km/h 91% 0.0 mm 0 W/m2
16:59 12.1 °C 10.8 °C 1029.3 hPa East 7.2 km/h 12.2 km/h 92% 0.0 mm 0 W/m2
17:04 12.1 °C 10.8 °C 1029.3 hPa East 6.1 km/h 12.2 km/h 92% 0.0 mm 0 W/m2
17:09 12.0 °C 10.9 °C 1029.3 hPa East 5.0 km/h 9.7 km/h 93% 0.0 mm 0 W/m2
17:14 11.9 °C 10.9 °C 1029.3 hPa East 3.5 km/h 11.1 km/h 94% 0.0 mm 0 W/m2
17:19 11.9 °C 10.9 °C 1029.3 hPa ENE 2.6 km/h 11.1 km/h 94% 0.0 mm 0 W/m2
17:24 11.6 °C 10.5 °C 1029.7 hPa NE 1.1 km/h 6.1 km/h 93% 0.0 mm 0 W/m2
17:29 11.2 °C 10.3 °C 1029.7 hPa NE 2.6 km/h 5.0 km/h 94% 0.0 mm 0 W/m2
17:34 11.1 °C 10.2 °C 1029.3 hPa ENE 3.5 km/h 7.2 km/h 94% 0.0 mm 0 W/m2
17:39 11.0 °C 10.2 °C 1029.7 hPa ENE 5.0 km/h 7.2 km/h 95% 0.0 mm 0 W/m2
17:44 11.0 °C 10.4 °C 1029.7 hPa ENE 3.5 km/h 7.2 km/h 96% 0.0 mm 0 W/m2
17:49 11.0 °C 10.6 °C 1029.7 hPa East 3.5 km/h 6.1 km/h 97% 0.0 mm 0 W/m2
17:54 11.0 °C 10.6 °C 1029.7 hPa East 2.6 km/h 6.1 km/h 97% 0.0 mm 0 W/m2
18:00 10.8 °C 10.5 °C 1030.0 hPa NE 2.6 km/h 5.0 km/h 98% 0.0 mm 0 W/m2
18:05 10.4 °C 10.1 °C 1030.0 hPa NNW 1.1 km/h 5.0 km/h 98% 0.0 mm 0 W/m2
18:10 10.2 °C 9.9 °C 1030.0 hPa NNW 2.6 km/h 3.5 km/h 98% 0.0 mm 0 W/m2
18:15 10.1 °C 9.8 °C 1030.0 hPa North 1.1 km/h 3.5 km/h 98% 0.0 mm 0 W/m2
18:20 10.0 °C 9.7 °C 1030.0 hPa North 2.6 km/h 3.5 km/h 98% 0.0 mm 0 W/m2
18:25 10.0 °C 9.8 °C 1030.0 hPa Calm   3.5 km/h 99% 0.0 mm 0 W/m2
18:30 9.7 °C 9.6 °C 1030.0 hPa Calm   3.5 km/h 99% 0.0 mm 0 W/m2
18:35 9.6 °C 9.4 °C 1030.4 hPa Calm   1.1 km/h 99% 0.0 mm 0 W/m2
18:40 9.7 °C 9.6 °C 1030.0 hPa Calm   2.6 km/h 99% 0.0 mm 0 W/m2
18:45 9.5 °C 9.3 °C 1030.4 hPa North 2.6 km/h 3.5 km/h 99% 0.0 mm 0 W/m2
18:50 9.4 °C 9.3 °C 1030.4 hPa North 2.6 km/h 3.5 km/h 99% 0.0 mm 0 W/m2
18:55 9.3 °C 9.2 °C 1030.4 hPa North 1.1 km/h 3.5 km/h 99% 0.0 mm 0 W/m2
18:56 9.2 °C 9.1 °C 1030.7 hPa North 1.1 km/h 3.5 km/h 99% 0.0 mm 0 W/m2
19:01 9.2 °C 9.1 °C 1030.7 hPa North 2.6 km/h 3.5 km/h 99% 0.0 mm 0 W/m2
19:06 9.0 °C 8.8 °C 1030.7 hPa NNW 2.6 km/h 5.0 km/h 99% 0.0 mm 0 W/m2
19:11 8.8 °C 8.7 °C 1030.7 hPa NW 3.5 km/h 5.0 km/h 99% 0.0 mm 0 W/m2
19:16 8.6 °C 8.4 °C 1030.7 hPa NNW 2.6 km/h 5.0 km/h 99% 0.0 mm 0 W/m2
19:21 8.5 °C 8.3 °C 1031.0 hPa NNW 2.6 km/h 5.0 km/h 99% 0.0 mm 0 W/m2
19:26 8.5 °C 8.3 °C 1031.0 hPa North 3.5 km/h 5.0 km/h 99% 0.0 mm 0 W/m2
19:31 8.3 °C 8.2 °C 1031.0 hPa NNW 3.5 km/h 6.1 km/h 99% 0.0 mm 0 W/m2
19:36 8.2 °C 8.1 °C 1030.7 hPa NNW 3.5 km/h 6.1 km/h 99% 0.0 mm 0 W/m2
19:41 8.1 °C 7.9 °C 1030.7 hPa North 1.1 km/h 5.0 km/h 99% 0.0 mm 0 W/m2
19:46 8.0 °C 7.8 °C 1031.0 hPa NNW 6.1 km/h 7.2 km/h 99% 0.0 mm 0 W/m2
19:51 7.8 °C 7.3 °C 1031.0 hPa NNW 2.6 km/h 7.2 km/h 97% 0.0 mm 0 W/m2
19:56 7.8 °C 7.3 °C 1030.7 hPa Calm   7.2 km/h 97% 0.0 mm 0 W/m2
20:01 7.7 °C 7.3 °C 1031.0 hPa NNW 2.6 km/h 7.2 km/h 97% 0.0 mm 0 W/m2
20:06 7.6 °C 7.2 °C 1030.7 hPa North 2.6 km/h 5.0 km/h 97% 0.0 mm 0 W/m2
20:11 7.5 °C 7.1 °C 1031.0 hPa NNW 1.1 km/h 5.0 km/h 97% 0.0 mm 0 W/m2
20:16 7.4 °C 6.9 °C 1030.7 hPa NNW 2.6 km/h 5.0 km/h 97% 0.0 mm 0 W/m2
20:21 7.4 °C 6.9 °C 1031.0 hPa North 2.6 km/h 5.0 km/h 97% 0.0 mm 0 W/m2
20:26 7.3 °C 6.8 °C 1031.0 hPa NNW 3.5 km/h 7.2 km/h 97% 0.0 mm 0 W/m2
20:31 7.0 °C 6.6 °C 1031.4 hPa NNW 2.6 km/h 7.2 km/h 97% 0.0 mm 0 W/m2
20:36 6.7 °C 6.4 °C 1031.4 hPa NNW 2.6 km/h 6.1 km/h 98% 0.0 mm 0 W/m2
20:41 6.5 °C 6.2 °C 1031.0 hPa North 1.1 km/h 5.0 km/h 98% 0.0 mm 0 W/m2
20:46 6.4 °C 6.1 °C 1031.4 hPa Calm   5.0 km/h 98% 0.0 mm 0 W/m2
21:04 6.2 °C 5.9 °C 1031.0 hPa NNW 2.6 km/h 5.0 km/h 98% 0.0 mm 0 W/m2
21:09 6.2 °C 5.9 °C 1031.4 hPa NNW 2.6 km/h 5.0 km/h 98% 0.0 mm 0 W/m2
21:14 6.1 °C 5.8 °C 1031.4 hPa North 1.1 km/h 3.5 km/h 98% 0.0 mm 0 W/m2
21:19 6.0 °C 5.7 °C 1031.4 hPa North 1.1 km/h 2.6 km/h 98% 0.0 mm 0 W/m2
21:24 6.0 °C 5.7 °C 1031.4 hPa North 1.1 km/h 2.6 km/h 98% 0.0 mm 0 W/m2
21:30 5.9 °C 5.8 °C 1031.4 hPa NNE 2.6 km/h 3.5 km/h 99% 0.0 mm 0 W/m2
21:35 5.9 °C 5.8 °C 1031.4 hPa NNE 2.6 km/h 3.5 km/h 99% 0.0 mm 0 W/m2
21:40 5.9 °C 5.8 °C 1031.4 hPa NNE 2.6 km/h 3.5 km/h 99% 0.0 mm 0 W/m2
21:45 6.0 °C 5.7 °C 1031.4 hPa North 2.6 km/h 5.0 km/h 98% 0.0 mm 0 W/m2
21:50 5.9 °C 5.8 °C 1031.0 hPa North 2.6 km/h 5.0 km/h 99% 0.0 mm 0 W/m2
21:55 5.8 °C 5.7 °C 1031.0 hPa North 1.1 km/h 5.0 km/h 99% 0.0 mm 0 W/m2
22:00 5.8 °C 5.7 °C 1031.4 hPa North 1.1 km/h 3.5 km/h 99% 0.0 mm 0 W/m2
22:05 5.8 °C 5.7 °C 1031.4 hPa North 2.6 km/h 3.5 km/h 99% 0.0 mm 0 W/m2
22:10 5.7 °C 5.6 °C 1031.4 hPa North 2.6 km/h 3.5 km/h 99% 0.0 mm 0 W/m2
22:15 5.8 °C 5.7 °C 1031.4 hPa North 2.6 km/h 3.5 km/h 99% 0.0 mm 0 W/m2
22:20 5.8 °C 5.7 °C 1031.0 hPa North 2.6 km/h 3.5 km/h 99% 0.0 mm 0 W/m2
22:25 5.7 °C 5.6 °C 1031.4 hPa North 2.6 km/h 3.5 km/h 99% 0.0 mm 0 W/m2
22:30 5.6 °C 5.4 °C 1031.4 hPa North 1.1 km/h 3.5 km/h 99% 0.0 mm 0 W/m2
22:35 5.5 °C 5.3 °C 1031.4 hPa NNE 1.1 km/h 3.5 km/h 99% 0.0 mm 0 W/m2
22:41 5.4 °C 5.3 °C 1031.0 hPa North 2.6 km/h 3.5 km/h 99% 0.0 mm 0 W/m2
22:46 5.5 °C 5.3 °C 1031.0 hPa North 2.6 km/h 5.0 km/h 99% 0.0 mm 0 W/m2
22:51 5.4 °C 5.3 °C 1031.4 hPa North 3.5 km/h 5.0 km/h 99% 0.0 mm 0 W/m2
22:56 5.3 °C 5.2 °C 1031.4 hPa North 5.0 km/h 6.1 km/h 99% 0.0 mm 0 W/m2
23:01 5.3 °C 5.2 °C 1031.4 hPa NNW 3.5 km/h 6.1 km/h 99% 0.0 mm 0 W/m2
23:06 5.3 °C 5.2 °C 1031.4 hPa North 2.6 km/h 6.1 km/h 99% 0.0 mm 0 W/m2
23:11 5.3 °C 5.2 °C 1031.4 hPa North 2.6 km/h 6.1 km/h 99% 0.0 mm 0 W/m2
23:16 5.3 °C 5.2 °C 1031.4 hPa North 3.5 km/h 5.0 km/h 99% 0.0 mm 0 W/m2
23:21 5.3 °C 5.2 °C 1031.4 hPa North 3.5 km/h 5.0 km/h 99% 0.0 mm 0 W/m2
23:26 5.2 °C 5.1 °C 1031.4 hPa North 2.6 km/h 5.0 km/h 99% 0.0 mm 0 W/m2
23:31 5.1 °C 4.9 °C 1031.7 hPa North 2.6 km/h 5.0 km/h 99% 0.0 mm 0 W/m2
23:36 5.1 °C 4.9 °C 1031.7 hPa NNW 3.5 km/h 6.1 km/h 99% 0.0 mm 0 W/m2
23:41 5.0 °C 4.8 °C 1031.7 hPa NNW 3.5 km/h 7.2 km/h 99% 0.0 mm 0 W/m2
23:46 4.9 °C 4.8 °C 1031.4 hPa North 3.5 km/h 7.2 km/h 99% 0.0 mm 0 W/m2
23:51 4.7 °C 4.6 °C 1031.7 hPa North 2.6 km/h 5.0 km/h 99% 0.0 mm 0 W/m2
23:56 4.6 °C 4.4 °C 1031.7 hPa North 2.6 km/h 5.0 km/h 99% 0.0 mm 0 W/m2
Northern Hawkes Bay. New Zealand Historic Data
Compliments of Weather Underground - 2.25 mb